Weather Roundup
Issued by NWS Springfield, MO

Home | Current Version | Previous Version | Text Only | Print | Product List | Glossary On
Versions: 1 2 3 4 5 6 7 8 9 10 11 12 13 14 15 16 17 18 19 20 21 22 23 24 25 26 27 28 29 30 31 32 33 34 35 36 37 38 39 40 41 42 43 44 45 46 47 48 49 50
000
NZUS99 KSGF 040407
HRRSGF

HOURLY WEATHER
NATIONAL WEATHER SERVICE SPRINGFIELD MO
1100 PM CDT SUN MAY 03 2015

......SGF CWA......

CITY           SKY/WX    TMP DP  RH WIND       PRES   REMARKS
SPRINGFIELD    CLEAR     66  55  67 S8        29.98S
JOPLIN         PTCLDY    67  57  70 S10       29.97R
WEST PLAINS    CLEAR     69  53  56 S8        30.03S
ROLLA          CLEAR     69  53  56 S12       29.97S
OSAGE BEACH    PTCLDY    70  54  56 S5        29.96S
BRANSON        CLEAR     66  55  68 CALM      30.03R

......SURROUNDING SGF CWA......

CITY           SKY/WX    TMP DP  RH WIND       PRES   REMARKS
CHANUTE        CLEAR     65  57  75 S9        29.95R
PARSONS        CLEAR     67  57  70 S5        29.96R
COFFEYVILLE    CLEAR     68  57  68 S9        29.94R
EMPORIA        CLEAR     68  56  65 S15       29.90R
GROVE OK       CLEAR     68  55  64 S5        29.99S
ROGERS AR      CLEAR     67  55  65 S7        30.02R
SILOAM SPRINGS CLEAR     64  52  63 S7        30.02R
HARRISON AR    CLEAR     64  55  72 S6        30.03R
NEAR YELLVILLE FAIR      70  55  60 S3        30.00S

......KANSAS AND MISSOURI......

CITY           SKY/WX    TMP DP  RH WIND       PRES   REMARKS
KANSAS CTY INT CLOUDY    71  58  63 S21G26    29.90R
DOWNTOWN KC    MOCLDY    74  57  55 S18G25    29.89R
COLUMBIA       CLEAR     66  55  67 S9        29.94S
SEDALIA        PTCLDY    67  57  70 S8        29.94R
ST JOSEPH      CLOUDY    72  59  63 S6        29.90R
ST LOUIS       PTCLDY    75  50  41 S12       29.96F
SPIRIT OF STL  PTCLDY    73  51  46 S9        29.94F
KIRKSVILLE     CLOUDY    73  57  57 SW14G21   29.92R
WICHITA        MOCLDY    69  54  58 S14       29.90R
TOPEKA         PTCLDY    73  57  57 S13G21    29.88R
OLATHE         PTCLDY    70  57  63 SW13      29.92R

......TENNESSEE......

CITY           SKY/WX    TMP DP  RH WIND       PRES   REMARKS
MEMPHIS        PTCLDY    70  50  49 S8        30.08R
NASHVILLE      PTCLDY    61  52  72 S5        30.14R

......ARKANSAS.......

CITY           SKY/WX    TMP DP  RH WIND       PRES   REMARKS
FAYETTEVILLE   CLEAR     65  56  72 S3        30.02R
FT SMITH       CLEAR     69  54  58 SE5       30.00R
LITTLE ROCK    FAIR      69  56  62 S7        30.04S

......OKLAHOMA.......

CITY           SKY/WX    TMP DP  RH WIND       PRES   REMARKS
TULSA          PTCLDY    72  54  53 S12       29.94R
PONCA CITY     CLOUDY    71  53  52 S12G21    29.93R
MCALESTER      CLEAR     68  55  63 S7        29.99R
OKLAHOMA CITY  CLOUDY    67  55  65 S12       29.94R

......IOWA............

CITY           SKY/WX    TMP DP  RH WIND       PRES   REMARKS
DES MOINES     CLOUDY    72  57  59 SE6       29.83R
QUAD CITIES    CLOUDY    74  53  48 S12       29.88S

......ILLINOIS........

CITY           SKY/WX    TMP DP  RH WIND       PRES   REMARKS
QUINCY         CLEAR     71  52  50 S12       29.91R
CHICAGO        PTCLDY    62  54  74 S10       29.92S



USA.gov is the U.S. government's official web portal to all federal, state and local government web resources and services.